Wind_Speed
12 12 11 11 11 11 11 11 11 11 11 10 9 8 8 8 9 11 11 12 11 11 12 12 13 13 13 12 12 12 12 14 16 15 12 13 13 13 18 21 23 23 21 19 17 15 13 11 8 6 4 5 8 7 4 5 7 8 10 11 13 13 13 11 5 7 15 25 25 22 22 21 20 21 21 21 19 16 14 15 20 19 17 20 22 22 24 24
13 12 12 12 11 11 11 11 11 11 11 11 10 9 8 8 8 10 11 12 12 12 12 12 12 13 14 14 13 12 11 13 15 14 14 15 13 11 14 18 22 23 22 20 18 15 13 11 8 7 6 6 9 8 5 6 7 8 10 11 13 14 13 11 1 15 26 30 26 23 22 21 18 19 20 20 20 18 18 21 22 18 18 23 24 23 23 23
14 13 13 12 12 12 12 12 12 11 11 11 10 9 9 8 8 8 10 11 12 12 13 12 12 12 13 14 14 13 11 12 12 14 16 15 13 14 14 16 20 23 22 21 19 17 14 11 9 8 8 8 10 9 6 7 7 8 9 10 12 13 12 9 15 26 29 30 28 24 22 21 18 17 18 18 18 19 20 24 23 18 21 25 24 23 22 22
14 14 13 13 13 12 13 13 13 12 12 11 11 10 9 9 9 8 9 10 12 13 13 13 13 12 13 14 14 13 12 11 11 14 16 15 16 16 15 16 19 23 24 23 21 19 17 14 12 11 10 10 11 10 7 7 8 8 9 8 10 12 10 11 18 21 24 28 26 21 21 21 18 17 17 17 18 20 20 21 19 16 21 25 23 22 22 21
13 13 13 13 13 13 13 13 13 13 13 12 12 11 10 9 9 9 9 10 11 12 13 14 13 13 13 13 14 14 13 11 11 14 15 16 17 17 17 16 19 23 25 25 22 21 19 16 14 13 11 11 12 10 7 7 7 7 7 7 8 10 9 9 14 16 20 25 21 17 19 19 18 16 16 17 16 16 19 19 15 14 20 22 21 22 22 22
12 12 12 13 13 13 14 14 13 13 13 13 12 11 11 10 9 8 9 9 11 12 13 13 13 13 13 13 13 14 13 10 10 13 15 16 17 17 18 18 19 23 26 26 24 22 20 18 16 15 12 12 12 10 7 6 6 6 6 5 6 8 8 8 12 15 17 20 16 13 17 17 17 16 16 17 15 13 18 18 14 14 20 20 19 21 22 22
11 11 11 11 12 12 13 14 14 13 13 12 12 12 11 11 10 8 8 9 10 11 12 12 13 13 13 14 14 14 14 12 11 13 15 17 18 17 18 19 19 21 24 26 25 23 21 19 17 15 13 13 13 10 7 5 4 5 5 4 4 5 6 8 11 15 16 16 14 12 16 17 16 15 16 17 15 14 18 18 14 17 22 20 18 20 21 22
10 10 10 10 11 11 12 13 13 13 13 12 12 12 11 11 10 9 8 8 9 11 11 12 12 13 14 14 14 14 15 15 13 13 15 18 19 18 18 19 19 18 21 24 25 24 22 20 18 17 15 14 13 10 8 5 3 4 4 2 2 3 4 7 10 14 16 16 14 14 17 19 17 16 16 17 16 16 18 17 16 20 22 20 18 19 20 22
9 9 9 10 10 11 11 12 12 12 12 12 11 11 11 12 11 10 9 7 8 10 11 11 12 13 14 15 15 15 15 16 15 14 16 18 20 19 18 19 18 16 18 22 24 23 22 20 19 18 17 15 13 10 8 6 4 5 3 3 2 1 2 5 8 11 14 15 15 15 17 18 18 18 17 17 17 17 17 17 18 21 21 20 19 19 20 22
8 8 8 9 10 10 11 11 12 12 11 11 11 10 10 11 11 10 9 8 7 8 10 11 12 13 14 15 15 15 16 17 17 17 17 18 21 21 20 20 19 16 17 20 24 23 22 20 20 20 18 17 15 12 9 6 4 4 3 3 5 4 4 3 5 8 11 13 15 16 17 18 18 18 18 17 17 17 17 18 20 22 21 20 20 20 20 21
8 7 8 8 9 9 10 11 11 11 11 11 10 10 10 10 11 10 9 8 7 7 8 11 12 12 13 15 15 16 18 18 18 19 18 19 21 22 22 21 20 18 17 19 22 22 21 21 22 22 19 18 16 13 9 6 4 3 2 5 7 6 4 5 6 8 10 11 14 15 17 18 18 16 15 16 15 16 18 20 22 22 21 21 20 21 20 20
8 8 8 8 9 9 10 10 10 11 11 11 10 10 10 10 10 10 9 8 7 6 6 9 11 12 13 13 15 16 18 18 17 17 18 19 21 23 23 23 22 21 19 18 20 20 20 22 24 22 20 19 17 12 9 7 5 4 3 7 8 5 5 9 9 8 10 11 12 14 16 19 19 16 15 15 15 16 19 21 23 23 22 22 21 21 21 21
8 8 8 8 9 9 9 10 10 10 10 10 10 10 9 10 10 10 9 8 7 6 5 8 11 13 13 13 16 17 17 17 17 16 17 18 20 23 24 23 24 24 23 20 19 20 20 23 25 23 21 19 17 12 9 9 7 5 5 7 8 6 7 10 9 8 8 10 13 16 19 20 18 15 15 16 16 18 19 21 23 23 23 23 22 22 21 21
8 8 8 9 9 9 9 9 9 9 9 10 10 10 10 10 9 8 7 6 6 6 5 7 11 13 13 14 16 16 15 15 16 16 17 17 19 22 23 23 25 26 25 23 22 23 23 25 25 24 21 18 17 13 10 11 9 5 6 8 10 9 8 7 8 9 8 8 12 16 17 19 19 17 16 17 17 18 18 20 24 24 24 24 23 22 22 21
8 8 8 9 9 9 9 9 9 9 9 9 10 10 9 9 9 8 7 7 7 5 4 7 11 12 13 14 15 15 14 14 15 16 18 18 18 20 22 23 25 26 25 23 24 26 27 27 27 25 22 19 18 14 11 13 10 6 8 10 12 11 7 6 7 10 8 7 11 13 12 15 20 19 18 18 18 18 17 19 23 25 25 25 24 23 22 20
7 7 8 8 9 9 9 9 8 8 9 9 9 9 9 9 8 8 8 8 7 4 4 7 10 12 13 14 14 15 15 15 16 16 16 18 19 20 22 23 25 26 25 24 25 27 29 29 28 26 22 20 19 16 12 13 10 8 10 10 12 12 9 7 6 9 9 8 11 12 10 12 19 20 20 20 18 18 18 19 23 25 26 25 25 24 22 20
7 7 8 8 8 9 9 8 8 8 8 9 9 8 9 9 8 9 9 10 8 3 4 7 9 11 12 13 15 17 17 17 18 17 16 16 18 20 22 24 25 26 26 25 26 28 30 30 29 27 23 21 20 17 13 13 12 11 12 11 11 11 11 10 7 8 10 9 11 12 10 11 17 20 21 22 20 19 19 19 21 24 26 25 24 24 22 21
7 7 7 8 8 8 8 7 7 8 7 8 8 9 10 10 9 8 8 9 8 3 3 6 9 9 9 11 15 18 18 19 19 17 16 16 16 19 23 24 25 26 27 26 27 30 31 30 29 27 25 23 21 19 17 16 16 14 13 13 11 11 12 11 8 7 9 10 11 13 13 11 14 19 21 21 21 19 20 22 21 23 26 26 25 24 23 21
6 6 7 7 7 7 7 7 7 7 7 8 8 9 9 9 9 8 8 8 6 3 1 5 8 8 10 12 15 19 17 17 18 15 15 15 15 18 24 25 24 26 27 27 29 31 31 30 29 28 28 26 23 22 18 15 15 13 12 11 8 7 9 9 8 8 9 11 12 13 14 11 12 17 19 20 21 20 22 24 24 23 25 26 26 24 23 22
6 6 6 7 7 7 7 7 7 7 8 8 8 9 9 9 8 6 7 6 5 4 1 6 7 8 11 11 14 16 15 14 14 13 14 14 15 18 24 25 24 26 27 28 30 32 31 30 30 31 30 27 24 21 14 12 13 12 11 9 6 5 4 4 7 8 9 11 13 13 13 13 12 14 18 19 21 23 24 25 26 25 25 27 26 25 23 21
6 5 6 6 6 6 6 6 7 7 8 8 8 8 8 8 5 4 3 3 4 3 3 7 8 10 10 10 12 13 12 11 12 15 15 15 15 17 22 24 23 25 27 27 30 31 30 30 32 32 29 25 21 20 15 14 15 14 11 10 8 7 5 3 5 7 9 12 15 15 14 16 15 13 16 21 23 25 26 26 26 26 25 26 26 25 23 21
6 5 5 6 6 6 6 6 6 7 7 7 7 7 7 6 5 5 5 5 4 3 8 11 12 11 9 9 10 10 9 10 13 16 16 14 14 14 18 22 22 24 27 28 31 31 29 30 32 29 27 24 20 20 20 17 17 14 11 11 10 8 6 3 3 4 7 12 15 16 15 16 17 14 13 19 23 25 27 27 26 26 25 25 25 24 23 22
5 4 4 5 5 5 6 6 6 6 6 5 5 6 6 6 6 7 7 7 4 6 12 14 13 11 11 11 10 10 8 9 13 15 15 14 12 11 14 19 21 23 26 29 31 31 29 27 29 27 25 25 22 20 22 20 19 17 13 12 11 9 6 4 3 3 5 11 14 15 15 15 16 16 15 17 21 24 28 30 29 29 27 24 23 23 22 23
5 3 4 4 5 5 5 6 5 4 5 3 3 4 5 7 6 7 8 9 7 9 14 14 13 12 12 11 10 9 6 8 12 10 12 14 11 9 12 16 20 23 25 28 28 29 29 24 23 26 25 24 24 22 22 22 21 20 18 15 12 9 5 5 5 6 6 10 14 14 14 16 17 17 17 17 21 24 28 32 31 30 30 26 23 22 22 23
5 3 3 4 5 5 5 5 4 4 4 3 3 4 6 7 5 6 7 8 8 10 14 13 13 11 10 8 7 7 6 8 10 7 9 12 10 8 10 14 18 21 23 26 24 25 29 23 16 21 25 25 25 25 24 22 22 22 21 19 14 9 4 5 5 7 7 11 16 15 10 11 17 19 17 17 21 24 26 30 31 30 30 29 25 24 24 23
4 2 2 3 4 5 5 5 4 4 4 3 3 4 7 7 5 7 7 7 9 9 10 11 11 7 6 6 6 7 6 7 9 7 7 10 8 7 9 12 17 19 21 22 20 21 27 24 14 16 23 24 26 28 26 24 22 22 24 21 15 11 6 6 7 7 8 11 14 17 11 6 11 17 18 17 19 23 25 28 31 31 32 32 29 26 25 24
4 3 1 3 4 5 5 5 4 4 4 3 3 5 7 7 6 6 6 6 7 6 5 8 9 5 4 6 6 6 4 5 8 7 6 9 8 7 8 10 14 17 20 19 18 19 23 24 18 15 20 23 25 27 27 25 23 24 26 21 15 13 9 9 10 10 10 9 9 16 16 9 9 12 16 18 18 20 25 30 32 34 33 33 32 29 27 25
4 3 1 2 4 5 6 7 6 6 6 5 4 6 7 6 5 5 4 3 4 5 4 3 4 3 3 7 8 5 3 5 7 6 7 8 9 9 7 8 10 14 19 20 19 16 17 21 20 16 18 22 25 24 23 23 23 26 26 21 15 13 10 10 11 12 13 10 9 15 18 10 8 11 12 16 21 23 25 28 30 35 35 33 34 33 29 26
3 3 2 1 4 5 6 7 8 7 7 7 6 7 8 6 5 5 4 3 5 6 4 2 1 1 1 5 10 8 5 5 3 4 8 9 9 9 7 6 9 12 15 20 22 17 13 16 19 18 18 21 23 22 20 20 23 27 25 19 15 12 10 8 9 13 13 9 11 16 18 11 6 10 13 16 20 20 22 25 26 30 34 35 35 34 31 28
3 3 2 1 4 6 7 7 7 7 6 7 7 9 10 7 4 4 3 3 8 8 5 4 2 1 2 4 10 9 7 4 0 2 7 9 10 8 6 7 9 11 12 16 21 19 15 14 17 19 18 19 21 20 19 19 21 23 20 17 15 13 12 9 10 16 10 7 17 19 19 14 6 8 13 17 16 10 12 21 25 28 32 35 36 34 32 31
2 2 2 1 4 6 6 7 6 6 6 7 9 12 12 11 10 6 3 4 8 8 6 5 4 2 2 4 7 7 5 3 3 5 7 10 11 8 7 7 9 11 11 13 16 15 17 18 17 18 17 16 17 18 17 17 18 17 16 16 13 10 8 5 10 15 7 6 18 21 19 18 11 9 8 10 12 9 8 13 18 26 32 34 35 35 34 33
2 1 2 2 4 6 7 6 6 6 7 7 9 9 9 10 12 10 6 4 7 9 8 5 4 3 4 3 3 4 4 3 4 7 10 12 12 10 9 8 9 11 10 12 14 13 15 18 17 16 15 15 16 16 16 17 18 16 17 17 11 5 4 4 5 7 7 9 11 11 14 17 19 20 16 12 13 12 11 9 10 20 30 34 35 35 36 36
2 3 3 3 5 6 7 7 7 8 7 8 8 8 10 10 9 11 11 8 8 11 10 4 3 3 4 3 2 2 3 2 2 6 12 11 8 10 10 8 8 9 9 10 12 12 12 14 16 15 14 15 16 16 17 16 16 19 22 21 14 5 4 3 2 1 5 12 9 6 9 11 15 18 20 22 19 17 16 12 9 13 24 32 34 35 37 37
4 4 4 4 5 6 8 8 8 8 7 8 9 10 13 12 8 10 11 11 12 12 8 6 7 4 2 3 3 2 3 5 4 7 9 6 5 6 6 7 8 8 9 9 8 8 7 8 13 15 13 15 18 18 15 12 11 17 21 21 19 12 4 3 5 4 5 6 6 9 8 6 9 11 15 19 18 17 17 15 11 10 17 27 32 34 37 37
6 6 6 6 6 8 9 8 7 6 7 8 7 9 13 11 9 10 9 10 12 11 7 9 8 5 3 5 4 3 5 9 9 9 7 5 6 7 4 2 5 7 7 8 6 4 6 6 9 14 15 13 15 17 16 12 10 14 18 20 22 20 11 4 6 11 12 4 5 11 10 7 10 13 16 16 14 14 15 14 13 10 13 23 31 34 36 36
7 8 8 8 8 9 9 8 6 6 7 6 4 8 14 11 9 9 8 9 11 10 6 8 7 6 7 7 6 5 5 9 11 11 10 8 9 9 7 6 3 4 3 5 6 4 6 6 6 11 14 14 14 15 17 17 13 13 18 22 22 19 16 10 6 10 12 4 4 9 9 9 13 13 15 16 14 12 13 14 12 10 11 18 26 32 35 34
10 11 11 11 11 10 9 8 7 6 6 5 6 10 13 11 9 9 8 8 10 9 3 5 5 6 8 9 9 9 9 9 10 11 12 10 8 8 7 8 7 3 1 2 4 4 6 8 7 7 9 13 16 16 16 18 16 13 17 21 19 16 17 14 6 5 4 1 3 8 9 9 10 9 12 15 13 11 15 15 13 11 11 13 19 27 31 32
12 14 14 13 12 11 9 8 7 8 8 9 11 13 12 11 10 9 7 6 8 8 5 6 7 6 7 8 9 9 8 9 9 11 11 8 6 6 6 6 6 6 4 2 1 2 4 7 7 5 5 9 15 16 15 17 20 17 14 17 17 14 15 15 7 2 3 1 1 5 8 10 12 11 11 13 13 13 17 17 15 14 13 13 17 23 28 32
14 14 14 12 11 10 9 8 8 8 8 9 10 10 11 11 10 8 6 5 6 7 7 7 7 6 6 6 6 5 6 8 9 9 8 6 5 3 3 3 3 5 5 2 3 4 4 4 3 4 3 5 10 14 15 16 20 19 14 18 21 16 14 16 11 5 4 3 1 2 4 8 15 15 12 12 14 16 19 19 18 17 15 15 18 23 28 33
13 12 12 12 10 9 9 9 9 8 8 9 9 8 9 10 9 6 4 5 7 7 8 7 6 6 6 5 4 4 5 6 7 7 6 6 5 3 1 2 3 4 5 4 4 4 4 4 3 2 1 2 6 12 15 16 19 18 15 19 22 17 14 14 12 8 5 4 3 3 2 7 15 17 13 13 15 18 20 20 20 19 17 16 17 21 26 30
10 10 11 11 10 10 9 9 9 8 8 7 7 7 7 7 6 4 3 4 6 8 8 6 5 5 5 5 5 3 5 5 5 6 6 5 5 2 2 5 6 6 7 7 6 5 4 4 7 6 5 4 3 9 13 16 18 17 15 16 16 15 15 12 7 8 7 4 6 6 2 7 16 19 17 16 17 19 21 21 20 19 17 16 15 17 22 26
9 10 11 10 9 9 8 8 7 6 4 4 5 7 6 5 4 3 3 2 3 5 7 6 5 5 4 4 5 4 5 5 4 4 5 5 4 2 2 5 7 8 10 10 9 7 4 5 7 8 6 3 3 7 11 12 14 15 15 15 14 14 15 12 6 8 10 6 6 7 2 6 14 19 19 19 19 19 19 19 19 18 17 15 14 14 16 20
8 10 11 9 7 6 6 5 4 4 4 4 5 5 4 2 3 3 2 2 1 2 4 5 5 4 3 3 3 3 3 4 4 5 5 5 4 1 2 3 5 7 7 8 8 6 5 6 7 7 4 2 7 9 12 13 12 12 12 13 15 14 14 13 8 7 11 11 9 6 1 5 13 18 20 21 19 18 17 18 18 16 15 16 15 15 15 16
7 10 10 7 5 3 3 3 4 6 6 5 4 3 2 2 4 3 2 1 1 2 4 4 4 4 3 2 2 2 2 2 5 7 6 4 2 2 3 3 4 4 4 5 5 5 5 6 6 5 2 3 5 6 8 10 11 11 10 9 13 13 12 14 12 8 10 14 14 8 4 7 13 17 21 21 19 19 18 18 17 15 14 16 16 16 15 16
8 10 7 5 4 2 2 3 4 7 7 5 5 3 1 2 4 4 2 1 2 2 2 2 3 3 3 2 1 1 1 2 5 6 5 3 2 0 1 2 3 3 3 3 4 4 3 3 4 2 1 3 3 4 5 3 3 6 6 6 10 13 12 13 14 13 11 14 16 11 6 8 13 18 21 21 20 19 18 18 17 15 14 14 14 14 13 13
9 8 6 5 4 2 2 3 4 6 7 6 5 3 2 1 3 3 3 2 2 3 2 0 1 1 2 2 2 2 1 3 4 4 4 3 2 2 2 1 1 2 3 3 3 1 1 1 3 4 6 7 9 10 11 10 8 6 3 2 5 9 12 12 13 14 13 14 17 16 11 10 13 17 20 21 21 20 20 19 17 15 13 12 12 12 12 11
10 9 8 7 5 4 4 4 5 6 6 4 3 2 3 2 2 3 4 3 2 4 4 2 1 1 1 2 2 3 4 4 4 5 5 4 2 1 2 3 3 3 2 3 2 1 2 3 7 10 8 4 3 7 13 13 9 10 10 4 4 6 9 11 11 11 12 13 16 19 17 14 13 15 19 22 22 22 21 19 16 14 14 13 12 13 13 12
10 10 10 9 8 8 6 5 5 4 4 4 3 2 4 2 2 3 3 3 3 3 4 3 2 1 1 3 3 3 4 5 4 4 3 2 2 2 3 5 6 6 5 4 3 1 2 3 6 10 9 7 9 5 5 12 9 8 12 9 6 6 7 9 9 9 11 12 15 18 20 18 14 15 19 22 23 23 21 19 17 15 14 14 14 14 14 13
11 11 11 10 10 9 7 5 4 3 3 4 4 3 3 2 4 4 3 4 5 4 4 3 2 2 2 3 3 4 5 5 3 4 3 1 2 3 5 5 6 6 6 6 4 2 2 3 4 7 9 7 8 11 8 6 8 8 12 12 7 7 7 8 9 8 9 12 14 15 18 19 16 14 18 22 24 23 21 20 18 16 15 15 15 14 14 12
11 12 12 11 11 10 8 6 4 2 1 3 3 3 3 5 5 5 4 3 3 2 2 2 1 1 1 1 2 4 6 6 4 4 3 3 3 4 4 4 6 7 6 5 4 3 2 2 2 5 9 9 9 12 13 9 6 10 12 10 4 5 8 9 10 9 10 12 13 13 16 20 18 15 18 24 25 23 22 19 18 16 15 15 16 15 13 12
11 12 12 11 10 10 9 7 5 4 3 3 2 2 5 5 5 5 3 1 1 2 2 1 0 1 2 3 3 4 6 7 5 3 2 3 3 4 5 5 6 8 8 6 4 3 3 3 3 4 6 9 11 12 14 14 11 14 15 13 9 3 3 8 10 10 10 10 11 14 18 21 19 17 19 23 26 24 21 18 16 16 15 16 17 16 14 13
12 11 11 11 10 9 9 8 8 7 6 5 3 3 4 4 5 6 3 2 3 2 2 2 3 4 5 5 4 5 5 6 5 3 2 1 2 4 4 4 5 7 8 8 5 2 2 4 3 4 5 8 10 12 16 16 13 16 17 17 17 12 6 2 7 9 10 10 9 13 19 20 19 18 20 24 26 23 19 17 15 15 15 16 17 16 13 11
Wind_Direction
336 334 334 332 329 324 320 316 311 306 303 301 298 294 286 273 263 254 248 244 241 238 235 233 230 230 232 235 234 230 227 223 222 217 206 200 201 201 202 200 201 203 206 209 213 213 210 205 188 175 171 164 165 157 133 92 73 57 42 32 19 9 357 340 289 209 167 151 155 171 169 170 166 160 164 161 161 175 175 164 168 167 165 170 168 163 159 158
333 331 330 328 326 323 319 316 312 308 305 301 297 292 286 279 269 259 253 247 242 238 236 232 229 227 228 231 232 231 227 224 222 215 209 207 202 197 201 201 202 204 203 208 212 213 214 208 191 177 170 163 164 159 142 104 83 64 49 36 24 19 7 356 119 150 145 145 160 175 171 170 169 164 168 166 165 174 175 167 167 168 166 169 169 165 162 159
330 328 326 324 321 318 316 313 310 308 306 304 300 293 284 278 270 262 255 250 246 241 238 233 230 226 225 226 228 230 226 224 220 213 213 207 197 197 198 196 199 203 203 205 208 208 209 201 190 184 171 161 164 161 146 114 87 69 59 42 32 30 26 55 120 139 145 152 165 175 171 170 172 167 169 170 168 171 173 166 163 168 169 169 169 166 163 159
326 325 323 321 319 315 311 308 306 306 305 304 302 299 291 280 270 262 255 250 247 244 240 236 230 225 225 224 223 226 226 223 215 211 213 205 197 198 198 194 194 200 202 205 205 204 203 195 189 186 173 167 166 155 136 111 84 68 61 46 41 41 48 95 127 140 153 159 164 170 170 170 172 170 168 173 171 168 169 163 162 172 172 168 167 165 162 158
324 322 321 320 318 315 311 306 303 302 302 302 301 300 298 289 276 264 254 248 245 244 242 237 232 225 224 223 220 220 221 224 214 209 209 204 201 199 197 194 191 196 201 204 204 204 203 194 192 190 175 170 162 146 130 108 85 71 63 54 50 52 60 104 138 146 156 163 162 167 173 171 173 172 170 174 176 168 160 161 168 178 176 169 164 163 160 157
325 323 322 320 319 317 313 309 305 302 299 298 298 297 296 293 286 272 257 247 243 242 240 237 233 226 223 222 219 215 212 218 212 204 202 201 202 201 198 195 193 195 199 203 204 205 204 196 198 194 175 167 156 141 134 120 100 84 70 61 57 62 73 102 143 153 157 167 169 173 178 175 175 174 173 173 175 169 159 163 174 177 177 173 165 162 158 155
329 327 326 323 321 319 316 313 311 309 303 297 293 292 293 291 289 282 266 251 243 242 238 235 232 227 222 219 218 213 207 208 206 199 197 196 198 200 199 199 199 194 197 202 203 205 203 199 202 194 177 167 155 146 145 138 117 98 79 66 69 78 94 112 146 162 166 174 180 184 182 179 179 177 175 174 171 170 165 168 174 173 176 175 169 165 158 154
331 331 329 327 326 325 322 319 318 317 312 303 294 290 290 289 289 286 277 260 246 242 238 232 229 226 222 218 215 212 206 203 200 194 193 193 195 197 198 203 203 195 194 199 202 204 204 202 201 193 184 174 162 157 155 146 113 87 86 103 113 102 126 140 151 168 178 184 189 189 185 181 181 181 180 177 173 173 172 171 171 172 175 175 170 167 160 156
331 332 330 330 329 329 328 324 324 324 318 311 302 294 288 286 287 287 281 271 252 242 237 230 227 224 221 216 213 211 207 202 195 191 192 191 191 192 195 203 205 196 192 196 199 201 203 203 199 192 185 176 168 167 163 150 106 71 90 193 208 167 200 172 154 173 184 189 194 192 187 185 183 181 182 181 174 175 179 176 171 171 175 174 171 169 165 161
329 329 329 329 330 331 329 327 327 327 325 318 311 301 291 287 287 287 283 276 261 244 236 229 224 222 219 215 211 208 206 203 195 189 189 189 190 190 191 198 201 196 192 195 197 197 200 200 194 189 182 177 174 173 169 153 126 83 89 198 210 223 226 177 155 177 180 185 191 189 189 189 187 185 185 183 177 181 187 181 172 173 175 174 171 171 170 167
328 328 328 328 330 330 328 328 326 326 326 323 318 308 299 293 289 287 284 282 275 257 239 229 224 220 219 215 210 207 205 204 199 191 188 187 189 189 190 193 193 192 193 194 194 195 197 195 190 186 181 181 180 178 170 158 159 138 132 210 213 224 209 173 174 170 169 181 185 188 194 190 188 192 191 187 185 188 189 180 173 174 177 176 172 172 173 172
328 329 329 328 329 330 329 327 324 322 322 323 322 314 307 298 291 288 290 293 289 276 247 228 221 215 215 214 209 207 206 205 201 195 190 188 189 189 190 190 187 188 191 192 192 193 194 193 190 185 183 185 184 183 177 171 180 175 203 225 215 217 195 190 189 160 161 181 178 181 194 192 190 194 194 192 191 190 186 178 174 175 179 180 175 174 175 176
328 328 330 330 332 334 331 327 323 317 314 318 320 318 311 300 295 296 300 304 300 288 257 228 216 211 207 206 207 206 205 204 202 199 195 191 190 190 190 190 186 187 188 188 189 189 191 191 189 186 186 186 185 185 183 181 185 196 218 225 213 207 204 203 195 170 166 178 174 174 186 192 191 193 195 195 194 194 189 180 176 176 181 184 178 175 178 180
327 328 332 336 337 336 334 329 323 314 308 308 312 316 315 309 308 313 319 321 311 296 267 228 214 209 202 202 205 203 201 201 200 200 198 196 194 192 192 190 188 189 188 186 185 185 186 188 188 189 189 187 185 185 187 187 190 205 208 207 213 213 209 210 202 190 174 165 172 175 184 190 189 192 196 195 195 197 194 185 181 179 180 184 181 178 182 184
327 330 337 341 340 338 337 333 326 317 306 298 304 315 318 319 323 330 334 333 325 308 264 223 212 206 202 203 201 196 193 192 194 198 199 200 198 196 194 191 190 191 190 187 185 183 184 187 190 192 192 188 185 184 187 192 195 203 196 195 209 217 221 228 214 201 185 157 165 180 190 188 189 194 195 198 200 198 197 192 187 181 179 183 183 182 184 185
330 336 343 345 342 341 339 336 330 320 309 301 305 312 314 318 327 335 334 337 338 313 247 219 210 202 201 201 193 188 185 183 189 193 195 200 201 199 195 192 192 191 190 190 188 184 184 189 192 193 195 190 186 187 185 190 195 197 202 206 211 218 230 242 225 207 198 169 162 182 196 187 190 197 195 197 201 200 200 201 195 186 181 182 184 185 186 184
334 341 349 349 345 345 344 341 338 330 319 311 309 306 305 310 320 328 329 338 346 312 242 223 205 193 195 194 189 187 183 182 186 185 187 194 200 202 197 193 193 190 190 191 189 185 185 189 192 193 195 192 189 189 182 188 194 191 202 216 222 227 236 242 237 217 206 189 173 182 194 193 193 197 196 196 199 202 203 204 202 191 184 184 186 189 188 186
335 345 353 353 351 353 351 351 351 343 333 321 313 304 302 305 312 319 319 333 350 340 257 216 189 179 183 185 187 190 187 186 186 185 188 190 193 200 196 191 192 191 190 192 189 186 186 190 193 193 195 194 194 193 187 192 198 195 202 212 222 235 240 242 245 233 215 203 192 189 191 197 200 198 198 198 198 204 207 206 204 195 188 186 189 193 191 187
335 346 356 359 0 3 3 4 360 350 339 326 316 306 304 308 311 312 310 321 347 354 261 187 174 168 171 179 189 192 189 186 185 188 194 191 189 196 194 189 189 190 190 192 189 186 188 191 194 195 195 194 195 195 194 198 203 205 212 220 229 244 250 247 247 245 233 219 210 205 196 195 205 203 201 202 200 205 211 209 204 196 190 189 191 193 192 187
332 347 359 3 8 14 16 14 4 353 341 329 322 314 316 320 314 307 303 311 342 351 210 182 176 163 165 180 193 193 188 183 180 184 190 188 183 189 191 188 185 187 190 193 191 189 191 195 198 197 195 194 197 197 192 191 198 201 205 213 212 205 224 241 244 249 249 237 227 224 212 202 209 210 208 211 209 210 213 211 206 199 191 192 193 193 193 185
327 347 2 7 14 21 25 21 9 357 348 342 338 332 334 340 339 340 337 347 5 12 159 165 156 149 159 179 190 189 187 183 179 180 180 178 178 182 187 187 184 185 189 193 193 192 195 201 202 198 196 198 202 202 191 179 186 187 182 186 182 172 174 197 237 250 255 247 235 231 223 213 215 216 213 218 217 214 213 212 209 204 197 194 194 195 196 188
321 346 6 9 15 24 32 27 10 1 357 353 350 347 348 354 15 36 47 60 47 89 144 150 145 143 154 163 171 173 170 172 175 177 174 173 177 181 186 186 183 185 189 191 193 194 199 206 204 199 200 203 206 209 203 192 189 190 185 187 187 184 195 217 246 256 252 246 238 231 228 222 219 220 219 223 223 217 215 215 213 209 205 199 195 196 198 195
316 342 7 11 12 25 39 30 13 5 357 349 346 346 353 6 30 43 50 57 69 128 141 143 142 142 146 141 139 138 140 161 170 174 173 170 171 182 188 185 182 185 190 192 192 195 201 209 207 203 205 208 210 214 213 208 204 206 206 200 196 194 214 261 304 311 262 240 235 227 229 233 226 222 223 225 225 219 216 217 215 212 211 205 198 197 199 201
311 336 4 11 9 22 39 31 20 5 350 344 340 345 8 19 32 49 61 59 69 134 145 144 146 146 147 141 132 130 134 165 171 174 179 173 167 180 188 186 185 186 190 193 195 199 204 210 211 208 209 212 214 218 219 218 217 218 216 208 201 196 225 283 303 310 282 238 230 219 223 237 232 225 225 224 223 222 220 219 215 212 212 207 201 198 200 205
305 323 1 11 12 26 37 30 28 13 354 350 342 357 24 31 44 64 78 64 65 128 148 146 145 149 155 152 145 147 140 155 170 180 185 179 175 183 186 187 191 189 190 194 198 206 207 208 212 210 212 217 218 220 224 224 225 227 220 211 203 200 239 277 287 289 250 223 223 211 212 241 236 229 227 223 220 221 223 222 217 213 212 208 203 201 200 202
299 300 353 17 26 39 42 38 40 25 14 10 356 20 43 50 73 76 84 76 71 116 155 162 156 156 167 163 158 161 143 144 165 171 181 186 186 189 190 193 196 193 193 195 204 215 213 209 209 208 212 219 221 223 225 225 229 232 223 215 208 209 238 262 270 268 228 215 218 211 208 246 246 233 229 226 223 224 225 224 219 215 213 209 204 203 202 200
292 286 333 33 39 47 52 54 58 48 42 39 28 54 62 66 82 76 81 83 61 72 123 166 174 177 180 173 169 163 144 151 166 173 188 194 201 202 198 204 203 198 198 201 210 220 217 211 209 208 211 217 222 223 224 224 228 229 223 220 218 217 237 264 273 271 241 222 209 210 217 242 267 244 233 231 226 226 226 224 221 217 214 212 206 204 204 204
287 279 275 60 56 54 60 65 65 59 58 61 67 71 61 59 72 65 72 80 31 39 67 138 185 195 206 203 195 175 137 145 165 190 197 196 207 206 203 215 209 200 203 209 215 221 222 216 214 216 216 218 220 220 219 220 226 227 223 224 225 223 239 267 278 260 238 223 203 206 213 231 266 246 233 231 226 227 226 222 220 218 216 213 208 205 205 206
284 275 268 82 77 70 70 70 65 59 60 68 78 69 48 50 72 60 68 70 27 28 26 358 124 127 272 213 198 191 172 148 137 188 190 192 202 204 207 211 201 198 205 214 219 222 224 219 218 221 224 224 220 217 218 219 221 224 225 226 223 220 234 266 273 238 215 213 225 217 208 211 259 242 221 218 222 232 233 225 220 218 216 213 208 206 206 206
274 266 263 114 96 88 76 70 63 59 62 70 82 74 60 63 72 55 62 34 16 26 35 25 66 72 3 175 182 188 186 182 161 162 178 191 195 198 208 204 197 201 207 217 223 227 226 219 220 224 226 227 224 221 223 221 218 221 223 220 216 222 238 256 243 216 192 220 242 235 216 210 248 257 228 223 230 249 244 230 223 216 214 212 208 206 207 209
251 252 249 193 114 103 87 77 71 64 68 89 98 88 75 70 64 59 60 17 14 26 41 42 41 54 94 142 165 173 175 182 178 167 174 190 195 198 202 201 201 205 214 225 230 237 231 224 225 226 227 228 225 224 224 220 218 217 211 207 209 218 228 223 207 202 192 251 250 247 228 212 224 249 246 246 250 260 260 246 231 217 211 209 208 206 207 211
203 204 209 172 126 116 107 100 86 73 80 102 107 95 82 71 56 47 42 24 17 18 23 39 53 94 128 137 153 158 165 170 176 184 184 186 197 205 206 209 209 210 226 235 239 251 243 233 231 229 230 228 224 224 222 219 217 212 207 206 202 182 159 168 187 194 215 236 246 246 218 210 232 248 256 265 262 257 260 272 255 225 214 209 208 207 208 211
170 171 172 153 134 124 119 114 91 77 86 97 100 92 84 77 52 37 42 38 27 19 14 29 70 127 159 155 132 136 158 143 139 184 184 184 196 209 218 230 224 221 236 240 243 254 255 245 235 231 233 228 224 226 223 222 218 211 211 207 198 165 115 179 214 94 231 235 236 225 205 217 243 253 256 258 260 258 254 262 267 232 216 213 211 209 210 211
157 157 150 144 137 125 124 116 89 80 93 98 103 98 84 73 45 35 43 37 32 32 36 75 97 120 131 93 98 108 123 116 119 161 173 175 172 186 217 242 241 239 243 240 239 247 253 244 226 224 230 229 228 230 227 229 224 215 216 214 210 202 161 174 194 168 212 230 209 195 200 230 241 243 251 254 259 255 247 251 256 231 211 212 214 212 212 212
150 146 139 134 128 123 123 113 92 92 104 107 111 95 79 63 34 34 39 30 30 39 70 106 114 115 74 69 99 116 112 120 134 153 158 150 140 140 140 189 235 242 244 239 237 244 254 247 218 216 223 228 231 232 228 227 224 217 217 219 219 215 210 208 192 201 216 212 144 180 197 229 236 244 250 250 257 249 235 237 237 221 203 205 211 213 214 214
147 139 129 126 124 121 116 105 100 107 111 125 137 87 72 56 35 36 30 22 27 35 81 124 126 115 92 82 103 122 116 128 146 151 146 140 127 118 104 90 128 212 240 239 227 231 253 248 213 212 223 228 231 230 224 220 218 214 213 218 221 218 224 234 203 198 213 212 165 187 203 224 228 245 249 242 250 239 216 217 218 211 206 204 208 212 214 214
141 132 121 116 116 114 108 102 102 109 111 125 121 87 69 52 44 41 26 22 28 26 61 130 112 107 109 101 110 123 124 134 154 151 137 133 117 103 95 79 82 95 81 211 221 247 266 255 232 218 223 227 231 232 224 218 218 219 217 218 216 212 222 229 208 175 184 165 203 200 210 219 210 228 239 231 237 224 201 202 203 202 205 202 205 210 214 216
137 129 118 111 108 104 104 102 98 107 112 108 100 83 63 52 48 39 29 30 34 35 65 107 96 94 109 116 123 128 133 140 152 150 135 130 119 96 81 68 63 57 68 111 274 329 298 272 249 230 223 225 232 235 228 218 218 226 231 218 204 196 207 211 202 175 171 158 269 207 219 227 209 211 225 220 215 202 192 196 200 200 200 195 197 203 210 216
138 131 123 117 110 103 103 106 107 116 119 104 92 76 59 54 45 33 35 40 40 53 71 87 99 99 93 110 124 128 148 149 149 153 142 132 139 125 77 46 29 25 40 42 350 2 346 307 256 214 229 239 228 224 221 212 210 218 225 211 203 199 196 199 206 211 175 168 210 203 222 231 216 212 218 216 204 190 188 197 201 202 202 198 195 196 204 214
140 137 135 129 118 110 107 109 111 113 108 94 82 72 60 52 41 32 46 47 45 61 72 77 97 103 92 101 109 117 150 154 158 165 154 138 144 162 246 286 296 330 358 357 335 340 335 313 282 242 297 289 215 207 206 200 197 198 196 195 199 200 192 194 210 220 192 152 156 167 227 224 212 211 214 212 201 189 192 201 204 205 206 203 199 197 202 211
150 146 145 134 123 120 113 112 116 110 100 89 79 71 57 43 38 34 39 45 49 62 71 76 83 79 80 99 102 113 144 149 162 165 149 144 148 150 273 277 278 284 308 326 326 319 312 306 302 310 357 22 179 189 191 191 190 190 190 192 195 197 194 190 198 210 203 178 164 169 206 217 208 210 214 211 203 196 198 205 209 209 209 206 203 201 204 210
159 151 148 136 126 127 121 120 132 126 104 94 85 70 52 35 37 33 26 55 80 72 69 72 74 65 63 90 89 94 127 132 144 157 138 136 159 193 294 291 287 282 292 308 316 313 299 293 306 320 347 26 128 158 164 169 180 189 197 203 202 202 202 200 201 200 193 185 180 176 193 225 211 210 213 210 204 201 204 211 216 218 216 211 206 204 206 211
155 149 148 141 129 124 115 115 137 145 128 127 115 75 48 17 10 10 7 37 66 97 92 83 77 74 74 92 88 77 101 124 140 151 134 120 146 178 347 319 298 287 289 303 310 311 307 297 304 321 328 145 128 121 132 142 156 173 185 199 205 208 211 211 215 207 192 187 181 168 170 231 215 211 213 211 206 203 208 216 222 225 223 218 214 212 212 215
161 156 154 148 137 115 95 104 137 147 140 147 153 103 65 320 329 335 309 333 42 104 115 98 72 68 68 74 102 77 66 142 147 139 131 119 119 74 33 2 331 307 285 293 301 300 301 301 309 330 341 165 136 97 114 139 149 152 154 176 196 202 209 213 215 210 201 198 195 190 192 209 209 209 210 210 207 205 209 217 223 225 225 225 224 221 217 219
178 176 170 153 143 106 92 134 158 158 152 162 170 151 135 305 327 337 340 322 175 143 115 97 68 73 79 64 88 70 16 168 157 144 140 140 136 107 14 9 7 346 317 307 307 296 285 307 319 323 105 128 112 41 20 18 87 121 136 164 190 196 201 212 215 211 210 205 203 204 192 190 201 205 206 206 206 205 208 216 222 223 224 227 225 221 216 217
188 195 189 160 148 124 127 165 181 169 163 171 180 184 212 281 342 336 330 325 223 225 244 172 77 110 120 102 112 106 101 163 166 158 156 153 174 224 274 342 10 354 346 338 325 302 204 57 64 117 127 103 82 55 24 5 14 27 24 173 192 198 197 203 212 216 218 212 209 216 214 201 202 203 204 206 206 205 209 215 220 218 217 220 221 220 218 216
197 204 199 182 170 163 154 160 174 174 176 195 215 211 203 212 338 326 308 311 273 244 248 242 208 204 158 157 162 131 128 151 160 158 157 154 164 218 306 320 314 303 305 322 324 218 172 119 106 122 142 157 114 54 30 19 19 10 355 317 223 209 197 201 212 219 220 213 213 221 223 221 218 208 205 207 205 203 208 213 215 213 211 214 221 226 228 226
209 205 204 198 183 173 167 167 183 196 212 233 241 197 181 206 306 318 302 301 295 266 261 255 230 220 201 201 210 183 156 155 160 165 160 161 197 260 310 309 305 295 279 289 300 209 181 159 128 130 150 202 223 220 6 14 28 20 357 334 267 227 205 205 211 218 226 226 226 228 225 223 221 211 206 206 203 201 204 207 208 211 214 218 226 233 234 229
209 203 203 202 194 188 189 198 213 227 242 247 235 193 191 259 304 316 308 285 281 280 270 251 209 172 157 181 219 223 199 186 181 187 199 261 271 286 307 307 309 304 286 282 290 274 187 178 155 149 161 187 212 215 238 333 14 16 356 342 297 237 221 214 208 216 236 234 229 232 227 216 211 210 204 198 197 200 203 206 207 211 216 221 227 233 236 232
200 198 198 198 198 196 197 206 214 201 224 252 225 205 264 308 320 332 331 289 270 263 242 236 201 168 164 215 264 251 229 222 213 203 226 270 291 302 315 322 327 326 314 298 294 289 250 209 179 167 171 177 188 205 222 247 318 338 338 341 321 224 210 211 213 225 238 231 226 229 221 208 203 205 200 194 194 198 201 204 207 210 218 226 229 233 239 240
195 196 196 196 198 199 202 207 203 202 221 233 218 255 302 311 317 327 326 263 185 131 133 157 194 264 300 307 303 275 240 231 225 216 240 270 291 307 315 320 324 329 330 324 313 288 251 233 206 181 179 184 189 200 213 223 257 296 317 343 360 359 197 199 207 218 225 228 232 224 212 206 205 201 195 194 195 195 196 201 207 214 223 229 231 235 238 236
202 202 204 206 206 206 208 206 202 211 225 223 234 285 306 306 310 315 301 241 223 222 239 271 282 283 276 269 272 264 242 227 215 200 193 246 306 315 313 318 329 339 343 337 326 296 204 203 202 199 199 195 195 203 207 212 236 271 299 335 353 356 357 229 205 205 207 217 238 230 213 207 207 201 193 191 191 191 196 202 209 221 231 235 239 238 230 222
Height
3132 3131 3130 3130 3129 3129 3128 3128 3127 3127 3127 3127 3128 3128 3128 3128 3129 3129 3129 3129 3130 3130 3131 3131 3132 3133 3133 3134 3135 3135 3136 3137 3138 3140 3142 3143 3144 3145 3146 3147 3148 3150 3152 3153 3154 3155 3156 3158 3159 3160 3160 3160 3161 3161 3161 3161 3161 3160 3160 3159 3158 3157 3156 3154 3153 3153 3155 3158 3162 3164 3165 3167 3168 3169 3171 3172 3173 3175 3177 3177 3179 3181 3183 3185 3186 3187 3187 3188
3131 3130 3130 3129 3129 3128 3127 3127 3126 3126 3126 3126 3126 3127 3127 3127 3128 3128 3128 3128 3128 3129 3129 3130 3130 3131 3132 3133 3133 3134 3135 3136 3137 3139 3140 3141 3143 3144 3145 3146 3148 3149 3151 3152 3154 3155 3156 3158 3159 3159 3160 3160 3161 3161 3161 3161 3161 3161 3160 3160 3158 3157 3157 3154 3152 3154 3156 3159 3163 3165 3166 3168 3170 3171 3172 3173 3173 3175 3176 3177 3179 3182 3183 3185 3186 3187 3188 3189
3130 3130 3129 3128 3128 3127 3127 3126 3126 3125 3125 3125 3125 3125 3126 3126 3126 3127 3127 3127 3127 3127 3128 3128 3129 3130 3130 3131 3132 3133 3134 3135 3136 3138 3139 3140 3142 3143 3144 3145 3147 3148 3150 3152 3153 3155 3156 3157 3159 3159 3160 3160 3161 3161 3161 3161 3161 3161 3161 3161 3160 3159 3159 3157 3155 3157 3159 3161 3163 3165 3167 3169 3171 3172 3173 3174 3175 3176 3178 3178 3179 3182 3183 3185 3187 3188 3190 3191
3130 3129 3128 3127 3127 3126 3126 3125 3124 3124 3124 3124 3124 3124 3124 3125 3125 3125 3125 3125 3125 3126 3126 3127 3128 3128 3129 3129 3130 3132 3133 3134 3135 3136 3137 3139 3141 3142 3143 3144 3146 3147 3149 3150 3152 3153 3155 3157 3158 3159 3159 3160 3161 3161 3162 3162 3162 3162 3162 3162 3161 3161 3162 3161 3161 3162 3163 3164 3165 3167 3169 3170 3172 3173 3173 3175 3176 3177 3179 3181 3182 3183 3184 3185 3187 3189 3190 3192
3129 3128 3127 3126 3126 3125 3125 3124 3123 3123 3123 3123 3123 3123 3123 3123 3123 3123 3124 3124 3124 3124 3125 3125 3126 3127 3127 3128 3129 3130 3132 3133 3134 3135 3136 3138 3140 3141 3142 3143 3145 3146 3147 3149 3151 3152 3154 3156 3157 3158 3159 3160 3161 3162 3162 3162 3163 3163 3163 3163 3162 3162 3163 3164 3165 3165 3166 3167 3168 3170 3171 3172 3173 3173 3175 3176 3178 3179 3181 3183 3184 3185 3186 3187 3188 3190 3191 3193
3129 3128 3127 3126 3125 3124 3123 3123 3122 3122 3122 3122 3121 3121 3121 3121 3122 3122 3122 3122 3123 3123 3123 3124 3125 3125 3126 3127 3128 3129 3130 3132 3133 3134 3135 3137 3138 3140 3141 3142 3143 3145 3146 3148 3150 3152 3154 3156 3157 3158 3159 3160 3161 3162 3162 3163 3163 3163 3164 3164 3163 3163 3165 3166 3166 3167 3168 3169 3170 3171 3172 3173 3173 3174 3176 3177 3179 3181 3182 3184 3185 3186 3188 3189 3190 3191 3192 3193
3128 3127 3126 3125 3124 3123 3123 3122 3121 3121 3121 3120 3120 3120 3120 3120 3120 3120 3120 3121 3121 3121 3122 3122 3123 3124 3125 3125 3126 3127 3128 3130 3131 3132 3133 3135 3137 3139 3140 3141 3142 3144 3146 3147 3149 3151 3153 3155 3156 3158 3159 3160 3161 3162 3162 3162 3163 3164 3164 3164 3164 3164 3165 3166 3167 3168 3169 3169 3170 3171 3173 3174 3175 3175 3176 3178 3180 3182 3183 3184 3186 3187 3188 3190 3192 3193 3194 3195
3128 3127 3126 3125 3124 3123 3122 3121 3120 3120 3119 3119 3119 3119 3119 3118 3118 3118 3119 3119 3120 3120 3120 3121 3121 3122 3123 3124 3125 3126 3127 3128 3129 3131 3132 3134 3135 3138 3139 3141 3142 3143 3145 3147 3149 3151 3153 3155 3156 3158 3159 3160 3161 3161 3162 3162 3163 3164 3164 3164 3164 3165 3165 3165 3166 3168 3168 3169 3170 3171 3173 3174 3175 3176 3177 3178 3180 3182 3183 3184 3185 3187 3189 3191 3193 3194 3195 3196
3128 3127 3126 3125 3123 3122 3121 3120 3120 3119 3118 3118 3117 3117 3117 3117 3117 3117 3117 3118 3118 3118 3119 3119 3120 3120 3121 3122 3123 3125 3126 3127 3128 3130 3131 3132 3134 3136 3138 3140 3142 3143 3144 3146 3148 3150 3152 3154 3156 3157 3158 3160 3161 3161 3162 3162 3163 3163 3164 3164 3164 3165 3165 3165 3166 3167 3168 3169 3170 3172 3174 3175 3176 3176 3177 3179 3180 3182 3183 3184 3186 3187 3189 3191 3193 3195 3196 3197
3128 3127 3125 3124 3123 3122 3121 3120 3119 3118 3118 3117 3116 3116 3116 3116 3116 3116 3116 3116 3117 3117 3117 3118 3118 3119 3120 3121 3122 3123 3124 3125 3126 3128 3130 3132 3133 3135 3137 3139 3141 3143 3144 3145 3147 3149 3151 3154 3155 3156 3158 3159 3160 3161 3161 3162 3163 3163 3164 3164 3164 3164 3165 3167 3167 3167 3168 3169 3170 3172 3174 3176 3177 3177 3178 3179 3181 3182 3184 3185 3186 3188 3190 3192 3193 3195 3197 3198
3127 3126 3125 3124 3123 3122 3121 3120 3119 3118 3117 3116 3116 3115 3115 3115 3115 3115 3115 3115 3116 3116 3116 3116 3117 3118 3119 3120 3121 3122 3123 3124 3125 3126 3128 3130 3132 3134 3135 3138 3140 3142 3143 3144 3146 3148 3150 3153 3154 3156 3157 3158 3159 3160 3161 3161 3162 3163 3164 3164 3164 3164 3165 3167 3166 3166 3168 3169 3170 3172 3174 3176 3177 3178 3179 3180 3181 3183 3184 3185 3187 3188 3190 3192 3194 3195 3197 3199
3126 3125 3124 3123 3122 3122 3121 3120 3119 3118 3117 3116 3115 3115 3114 3114 3114 3114 3114 3114 3115 3115 3115 3115 3116 3116 3117 3119 3120 3121 3122 3123 3125 3126 3127 3129 3131 3133 3134 3136 3138 3140 3142 3143 3145 3147 3150 3152 3153 3155 3157 3158 3159 3160 3161 3161 3162 3162 3163 3163 3163 3165 3166 3165 3165 3166 3166 3167 3169 3172 3174 3175 3176 3178 3179 3180 3182 3183 3185 3186 3187 3188 3190 3192 3194 3195 3197 3198
3125 3124 3123 3123 3122 3121 3120 3119 3118 3117 3116 3116 3115 3114 3114 3113 3113 3113 3113 3114 3114 3114 3114 3114 3114 3115 3116 3117 3118 3119 3121 3123 3125 3126 3128 3128 3130 3131 3133 3135 3136 3138 3139 3141 3144 3146 3148 3151 3153 3154 3156 3157 3159 3160 3160 3160 3161 3162 3162 3162 3164 3166 3166 3165 3165 3166 3165 3166 3169 3172 3174 3175 3176 3178 3179 3180 3182 3183 3184 3185 3187 3188 3190 3192 3194 3195 3197 3198
3124 3124 3123 3122 3121 3120 3120 3119 3118 3117 3116 3115 3115 3114 3113 3113 3113 3113 3113 3113 3113 3113 3113 3113 3113 3113 3114 3115 3117 3119 3121 3123 3124 3126 3127 3128 3129 3131 3133 3134 3136 3137 3138 3139 3141 3143 3147 3150 3152 3153 3155 3157 3158 3159 3160 3160 3161 3161 3162 3162 3163 3165 3165 3166 3167 3167 3166 3167 3168 3171 3173 3174 3176 3177 3178 3180 3181 3183 3184 3185 3187 3188 3190 3192 3193 3195 3197 3198
3124 3123 3123 3122 3121 3120 3119 3118 3117 3116 3116 3115 3114 3114 3113 3113 3113 3113 3113 3112 3112 3112 3111 3112 3112 3113 3114 3114 3116 3118 3120 3122 3123 3124 3126 3127 3128 3130 3131 3133 3135 3136 3137 3139 3140 3141 3144 3147 3150 3152 3154 3156 3157 3159 3159 3160 3161 3161 3161 3162 3162 3164 3165 3165 3167 3167 3167 3168 3169 3170 3173 3174 3175 3176 3177 3179 3181 3183 3185 3186 3187 3188 3190 3191 3193 3195 3197 3199
3124 3123 3122 3121 3120 3119 3119 3118 3117 3116 3115 3114 3114 3114 3113 3113 3113 3112 3112 3112 3111 3111 3111 3111 3111 3112 3113 3114 3115 3117 3119 3120 3121 3122 3124 3126 3127 3128 3130 3132 3133 3135 3137 3138 3139 3141 3143 3146 3149 3151 3153 3155 3157 3158 3159 3160 3160 3160 3161 3161 3162 3163 3164 3165 3166 3168 3168 3168 3169 3170 3172 3174 3175 3176 3177 3178 3180 3182 3184 3186 3187 3188 3189 3191 3193 3195 3196 3198
3123 3123 3122 3121 3120 3119 3118 3117 3116 3116 3115 3114 3114 3113 3113 3113 3113 3112 3112 3111 3111 3110 3110 3110 3111 3112 3113 3113 3115 3116 3118 3119 3119 3121 3122 3124 3125 3127 3129 3131 3132 3134 3136 3137 3139 3140 3142 3145 3147 3150 3152 3154 3156 3157 3158 3159 3159 3160 3160 3161 3162 3163 3164 3165 3166 3168 3168 3169 3170 3170 3172 3173 3174 3176 3177 3178 3180 3181 3183 3185 3187 3188 3189 3191 3193 3194 3196 3198
3123 3122 3121 3120 3120 3119 3118 3117 3116 3115 3114 3114 3113 3113 3112 3112 3112 3112 3111 3111 3110 3110 3110 3110 3111 3112 3112 3113 3114 3115 3116 3118 3119 3121 3121 3122 3124 3126 3127 3129 3131 3133 3135 3136 3138 3140 3142 3144 3146 3149 3151 3152 3154 3156 3157 3158 3159 3159 3160 3161 3162 3163 3164 3165 3166 3167 3168 3169 3170 3171 3172 3173 3174 3176 3177 3178 3179 3181 3182 3184 3187 3188 3189 3190 3192 3194 3196 3197
3123 3122 3121 3120 3120 3119 3118 3117 3116 3115 3114 3113 3113 3112 3112 3112 3112 3112 3111 3111 3110 3110 3110 3110 3111 3111 3112 3113 3113 3114 3116 3118 3120 3121 3122 3122 3123 3125 3126 3127 3129 3132 3134 3135 3137 3139 3141 3143 3145 3146 3148 3151 3153 3155 3157 3158 3159 3160 3160 3161 3162 3163 3164 3164 3166 3167 3168 3169 3170 3170 3172 3173 3174 3175 3177 3178 3179 3181 3182 3184 3186 3188 3189 3190 3192 3194 3195 3197
3122 3122 3121 3120 3119 3119 3118 3117 3116 3115 3114 3113 3113 3112 3112 3112 3111 3111 3111 3110 3110 3110 3110 3111 3111 3112 3112 3113 3114 3115 3116 3118 3120 3121 3122 3123 3123 3124 3126 3127 3128 3130 3133 3135 3136 3138 3140 3142 3142 3144 3148 3151 3153 3156 3157 3159 3159 3160 3160 3161 3162 3164 3164 3165 3166 3167 3168 3169 3170 3171 3172 3174 3174 3175 3177 3178 3179 3180 3181 3182 3184 3186 3188 3189 3191 3193 3195 3197
3122 3121 3121 3120 3119 3119 3118 3117 3116 3115 3114 3113 3112 3112 3112 3111 3111 3111 3110 3110 3110 3110 3110 3111 3112 3113 3113 3114 3114 3116 3117 3118 3119 3120 3121 3122 3123 3124 3125 3126 3127 3129 3132 3134 3136 3138 3140 3140 3142 3146 3150 3152 3153 3155 3157 3158 3159 3159 3160 3161 3162 3163 3164 3165 3166 3167 3168 3168 3169 3170 3172 3173 3174 3176 3177 3178 3178 3179 3180 3181 3183 3185 3187 3189 3190 3192 3194 3197
3122 3121 3121 3120 3119 3119 3118 3117 3116 3115 3114 3113 3112 3112 3112 3111 3111 3111 3111 3110 3110 3110 3111 3112 3113 3114 3114 3115 3116 3116 3118 3118 3119 3120 3121 3122 3123 3124 3125 3126 3127 3130 3131 3133 3135 3137 3139 3140 3143 3147 3150 3151 3153 3154 3156 3157 3158 3159 3160 3161 3162 3163 3164 3165 3165 3166 3167 3168 3168 3170 3171 3172 3174 3176 3177 3179 3178 3179 3180 3181 3182 3184 3186 3188 3189 3191 3194 3195
3121 3121 3120 3120 3119 3118 3118 3117 3116 3115 3114 3114 3113 3112 3112 3112 3112 3111 3111 3111 3111 3111 3112 3113 3114 3115 3115 3116 3117 3118 3119 3119 3120 3121 3122 3123 3124 3125 3126 3126 3128 3130 3132 3133 3135 3136 3138 3140 3143 3147 3148 3150 3152 3153 3154 3156 3157 3158 3159 3161 3162 3163 3164 3164 3165 3166 3166 3166 3167 3169 3171 3171 3173 3175 3176 3178 3178 3178 3179 3180 3181 3183 3185 3187 3188 3190 3193 3194
3121 3121 3120 3119 3119 3118 3118 3117 3116 3116 3115 3114 3113 3113 3113 3113 3112 3112 3112 3112 3112 3112 3113 3114 3115 3116 3116 3117 3118 3119 3119 3120 3121 3122 3123 3123 3124 3125 3126 3127 3129 3130 3132 3134 3135 3136 3138 3140 3143 3145 3147 3149 3151 3152 3153 3155 3156 3157 3158 3160 3161 3163 3164 3163 3164 3165 3165 3166 3166 3169 3170 3170 3171 3172 3174 3175 3176 3176 3177 3178 3179 3181 3183 3186 3188 3189 3191 3193
3121 3120 3120 3119 3118 3118 3118 3117 3116 3116 3115 3115 3114 3113 3114 3114 3113 3113 3113 3113 3113 3113 3115 3115 3116 3117 3117 3118 3119 3119 3120 3120 3122 3123 3123 3124 3125 3126 3127 3128 3129 3131 3132 3134 3136 3137 3138 3140 3142 3144 3146 3147 3149 3151 3152 3154 3156 3156 3157 3159 3161 3163 3163 3163 3164 3164 3164 3165 3165 3167 3169 3169 3168 3170 3171 3172 3173 3174 3176 3177 3178 3180 3182 3184 3186 3188 3190 3192
3120 3120 3119 3119 3118 3118 3118 3117 3117 3116 3115 3115 3115 3114 3115 3115 3114 3114 3114 3114 3114 3115 3116 3116 3117 3118 3118 3119 3119 3120 3120 3121 3122 3123 3124 3125 3126 3126 3127 3128 3129 3131 3133 3134 3136 3136 3137 3140 3141 3143 3144 3146 3147 3149 3150 3153 3155 3155 3156 3158 3161 3162 3162 3162 3163 3163 3164 3164 3165 3166 3168 3168 3168 3168 3169 3170 3171 3172 3173 3174 3176 3178 3180 3182 3184 3187 3188 3190
3120 3120 3119 3119 3118 3118 3118 3117 3117 3117 3116 3116 3115 3115 3116 3115 3115 3115 3115 3115 3116 3117 3117 3117 3118 3118 3119 3119 3120 3120 3121 3122 3122 3123 3124 3125 3126 3127 3128 3129 3130 3132 3133 3134 3135 3135 3136 3139 3141 3142 3143 3144 3145 3146 3149 3151 3153 3154 3156 3158 3160 3161 3162 3162 3162 3163 3163 3164 3165 3166 3167 3168 3167 3167 3168 3168 3169 3170 3170 3171 3173 3175 3177 3180 3183 3185 3187 3189
3120 3120 3119 3119 3118 3118 3118 3118 3117 3117 3117 3116 3116 3116 3116 3116 3116 3116 3116 3117 3118 3118 3118 3118 3118 3118 3119 3119 3120 3121 3122 3122 3123 3124 3124 3125 3126 3127 3128 3129 3130 3132 3133 3134 3134 3135 3136 3138 3140 3141 3142 3142 3143 3145 3148 3150 3151 3152 3155 3158 3159 3161 3161 3161 3162 3162 3163 3164 3165 3165 3167 3168 3166 3165 3166 3166 3167 3167 3167 3168 3170 3172 3175 3178 3180 3183 3185 3188
3119 3120 3119 3119 3118 3118 3118 3118 3118 3117 3117 3117 3117 3117 3117 3116 3117 3116 3116 3118 3119 3118 3118 3118 3118 3118 3118 3119 3120 3121 3122 3123 3123 3124 3124 3126 3126 3127 3128 3129 3130 3131 3132 3133 3134 3135 3136 3138 3139 3140 3140 3140 3142 3145 3146 3148 3149 3152 3154 3157 3158 3160 3160 3161 3161 3162 3163 3164 3163 3163 3166 3167 3165 3164 3164 3165 3165 3164 3164 3165 3167 3170 3173 3176 3179 3181 3184 3186
3119 3119 3119 3119 3118 3118 3118 3118 3118 3118 3118 3118 3118 3118 3117 3117 3117 3116 3118 3119 3119 3119 3118 3118 3118 3118 3118 3119 3120 3121 3122 3123 3123 3124 3125 3126 3127 3127 3128 3129 3130 3131 3132 3133 3133 3134 3135 3137 3137 3137 3138 3140 3142 3144 3145 3146 3148 3151 3153 3155 3158 3159 3159 3160 3161 3162 3165 3163 3161 3162 3164 3166 3165 3162 3162 3163 3162 3162 3163 3164 3166 3168 3170 3173 3176 3179 3182 3185
3119 3119 3119 3119 3119 3118 3119 3119 3119 3119 3119 3119 3119 3118 3118 3118 3117 3117 3120 3121 3120 3119 3119 3118 3119 3119 3119 3120 3120 3121 3122 3123 3123 3124 3124 3125 3126 3127 3128 3129 3130 3131 3131 3132 3132 3133 3134 3135 3135 3136 3138 3139 3141 3142 3144 3145 3147 3149 3152 3154 3156 3157 3158 3160 3161 3162 3165 3162 3159 3160 3163 3166 3164 3160 3160 3161 3161 3162 3163 3163 3164 3165 3167 3170 3174 3178 3181 3183
3119 3119 3119 3119 3119 3119 3119 3120 3120 3120 3120 3120 3120 3119 3119 3119 3119 3120 3121 3121 3120 3120 3119 3119 3119 3119 3119 3120 3121 3121 3122 3122 3122 3123 3124 3125 3126 3127 3128 3128 3129 3130 3131 3131 3132 3133 3133 3133 3134 3135 3137 3138 3139 3141 3142 3143 3145 3147 3149 3151 3154 3155 3158 3161 3161 3162 3163 3160 3158 3160 3163 3164 3162 3159 3160 3160 3160 3162 3163 3163 3164 3165 3166 3169 3172 3176 3179 3181
3119 3119 3119 3120 3120 3120 3120 3120 3121 3120 3120 3120 3120 3121 3120 3119 3121 3122 3122 3122 3122 3121 3120 3119 3119 3119 3120 3120 3121 3121 3122 3122 3122 3123 3124 3125 3126 3127 3128 3128 3129 3130 3130 3131 3132 3132 3132 3132 3133 3135 3136 3137 3138 3139 3140 3141 3143 3145 3146 3148 3151 3152 3156 3161 3161 3161 3161 3158 3158 3161 3163 3162 3159 3158 3158 3158 3159 3160 3161 3162 3163 3164 3166 3169 3171 3175 3177 3179
3119 3119 3120 3120 3120 3120 3121 3121 3121 3121 3121 3121 3122 3121 3120 3121 3123 3124 3123 3123 3122 3122 3121 3120 3120 3120 3120 3120 3121 3121 3122 3122 3123 3123 3125 3126 3127 3128 3128 3129 3129 3130 3130 3130 3131 3131 3131 3131 3132 3134 3135 3135 3136 3137 3139 3141 3142 3143 3145 3147 3149 3149 3152 3156 3158 3158 3157 3156 3158 3161 3161 3159 3157 3156 3156 3156 3157 3158 3159 3161 3162 3163 3165 3168 3171 3173 3175 3178
3119 3120 3120 3120 3120 3121 3121 3122 3122 3122 3122 3123 3123 3122 3122 3123 3124 3124 3123 3123 3123 3122 3122 3121 3121 3121 3121 3121 3121 3122 3122 3123 3124 3124 3126 3127 3127 3128 3128 3129 3129 3129 3130 3130 3130 3131 3131 3131 3131 3132 3133 3134 3135 3136 3138 3140 3141 3142 3144 3145 3146 3147 3149 3152 3153 3154 3154 3155 3157 3158 3158 3156 3155 3155 3155 3155 3156 3156 3158 3160 3161 3162 3163 3165 3168 3171 3173 3176
3120 3120 3120 3121 3121 3122 3122 3122 3123 3123 3123 3123 3123 3123 3124 3125 3125 3124 3124 3124 3123 3123 3123 3122 3122 3122 3122 3122 3122 3122 3123 3123 3124 3125 3126 3127 3128 3128 3129 3129 3129 3129 3129 3129 3130 3130 3130 3130 3131 3131 3132 3133 3134 3134 3136 3138 3139 3140 3141 3141 3144 3147 3150 3150 3151 3152 3152 3153 3155 3155 3155 3154 3154 3154 3154 3155 3155 3156 3157 3159 3160 3161 3162 3163 3165 3168 3171 3175
3120 3121 3121 3122 3122 3123 3123 3123 3124 3124 3124 3124 3123 3124 3125 3125 3125 3125 3125 3124 3124 3123 3123 3123 3123 3123 3123 3124 3124 3124 3124 3124 3125 3126 3127 3128 3129 3129 3129 3129 3129 3129 3129 3129 3130 3130 3130 3130 3130 3131 3131 3132 3132 3133 3135 3136 3137 3138 3139 3140 3144 3147 3149 3149 3150 3151 3152 3153 3153 3153 3153 3153 3153 3153 3153 3154 3154 3155 3156 3158 3159 3160 3161 3162 3165 3167 3171 3174
3121 3122 3122 3122 3123 3123 3124 3124 3124 3124 3125 3124 3124 3125 3126 3126 3126 3126 3125 3125 3124 3124 3123 3123 3123 3124 3124 3124 3125 3125 3125 3125 3126 3126 3127 3128 3129 3130 3130 3129 3129 3129 3129 3130 3130 3130 3130 3130 3130 3130 3131 3131 3131 3132 3134 3135 3136 3137 3138 3140 3143 3144 3145 3146 3148 3149 3150 3152 3153 3152 3152 3151 3151 3151 3152 3152 3153 3154 3156 3157 3158 3159 3160 3161 3163 3166 3170 3172
3122 3122 3123 3123 3123 3124 3124 3125 3125 3125 3125 3125 3125 3126 3126 3126 3126 3126 3126 3126 3125 3125 3124 3124 3124 3125 3125 3125 3125 3126 3126 3126 3126 3127 3128 3129 3129 3130 3130 3130 3130 3130 3130 3130 3130 3130 3130 3130 3129 3129 3130 3130 3130 3131 3132 3133 3135 3137 3138 3139 3140 3141 3143 3144 3145 3145 3147 3150 3152 3152 3151 3150 3149 3150 3151 3152 3153 3154 3155 3156 3157 3158 3160 3161 3162 3164 3167 3169
3123 3123 3123 3124 3124 3124 3125 3125 3125 3125 3125 3125 3126 3126 3127 3127 3127 3127 3126 3126 3126 3125 3125 3125 3125 3125 3125 3126 3126 3126 3126 3127 3127 3127 3128 3129 3130 3130 3130 3130 3130 3130 3130 3130 3130 3130 3130 3130 3129 3129 3129 3129 3129 3130 3131 3132 3134 3135 3136 3136 3137 3139 3141 3142 3143 3143 3144 3146 3149 3150 3149 3147 3147 3150 3150 3151 3152 3153 3154 3155 3157 3158 3159 3161 3162 3164 3166 3168
3124 3124 3124 3125 3125 3125 3125 3125 3125 3126 3126 3126 3126 3127 3127 3127 3127 3127 3127 3126 3126 3126 3126 3126 3126 3126 3126 3126 3126 3127 3127 3127 3127 3128 3128 3129 3129 3130 3130 3130 3130 3130 3130 3130 3130 3130 3130 3130 3129 3129 3129 3129 3129 3129 3130 3131 3133 3134 3135 3135 3136 3138 3139 3140 3141 3141 3142 3143 3144 3145 3145 3144 3146 3148 3149 3150 3151 3152 3154 3155 3156 3158 3160 3161 3163 3165 3167 3169
3124 3124 3125 3125 3125 3125 3125 3125 3126 3126 3126 3127 3127 3127 3127 3128 3128 3127 3127 3127 3127 3126 3126 3127 3127 3127 3127 3127 3127 3127 3128 3128 3128 3128 3128 3129 3129 3129 3129 3129 3129 3130 3130 3130 3130 3130 3130 3129 3129 3129 3130 3130 3129 3129 3130 3130 3132 3133 3134 3135 3136 3136 3137 3138 3138 3139 3140 3141 3141 3142 3143 3143 3145 3147 3148 3149 3151 3152 3154 3155 3156 3158 3160 3162 3164 3166 3168 3170
3124 3124 3125 3126 3126 3126 3126 3126 3126 3126 3127 3127 3127 3127 3128 3128 3128 3127 3127 3127 3127 3127 3127 3127 3127 3127 3127 3127 3127 3128 3128 3128 3128 3128 3129 3129 3129 3129 3129 3129 3129 3129 3130 3129 3129 3129 3129 3129 3129 3129 3130 3130 3129 3129 3129 3130 3131 3132 3133 3133 3134 3135 3136 3137 3137 3138 3138 3139 3140 3141 3142 3142 3144 3146 3147 3148 3150 3151 3153 3155 3156 3158 3160 3162 3163 3165 3168 3170
3124 3125 3125 3126 3126 3126 3126 3126 3127 3127 3127 3127 3127 3128 3128 3128 3128 3127 3127 3127 3127 3127 3127 3127 3127 3127 3127 3127 3128 3128 3128 3128 3128 3129 3129 3129 3129 3129 3129 3129 3129 3129 3129 3129 3129 3129 3129 3129 3129 3129 3130 3130 3130 3130 3130 3130 3130 3130 3131 3132 3132 3133 3134 3135 3137 3137 3137 3137 3138 3139 3140 3140 3142 3144 3146 3147 3149 3150 3152 3154 3155 3157 3159 3161 3162 3165 3167 3169
3124 3125 3125 3126 3126 3126 3126 3126 3127 3127 3127 3127 3127 3128 3128 3128 3128 3127 3127 3127 3127 3127 3127 3128 3128 3128 3128 3128 3128 3128 3128 3128 3128 3129 3129 3129 3129 3129 3129 3129 3129 3129 3129 3129 3129 3129 3129 3129 3129 3129 3130 3131 3132 3132 3132 3131 3130 3130 3130 3131 3131 3132 3133 3134 3135 3135 3135 3136 3137 3137 3138 3139 3141 3143 3144 3146 3148 3149 3151 3153 3154 3156 3157 3159 3161 3163 3166 3168
3124 3125 3125 3126 3126 3126 3126 3126 3126 3127 3127 3127 3127 3127 3127 3128 3128 3127 3127 3127 3127 3127 3128 3128 3128 3128 3128 3128 3128 3128 3128 3128 3128 3129 3129 3129 3129 3129 3129 3129 3129 3129 3129 3128 3129 3129 3129 3129 3129 3129 3130 3132 3132 3133 3133 3132 3130 3130 3129 3130 3130 3131 3131 3132 3133 3133 3134 3135 3135 3135 3136 3138 3140 3141 3143 3145 3146 3148 3150 3151 3153 3155 3156 3158 3160 3162 3165 3168
3124 3125 3125 3125 3126 3126 3126 3126 3127 3127 3127 3127 3127 3127 3127 3128 3128 3128 3127 3127 3127 3127 3127 3128 3128 3128 3128 3128 3128 3128 3128 3128 3128 3129 3129 3129 3129 3129 3129 3129 3129 3129 3129 3128 3129 3129 3129 3129 3129 3129 3130 3133 3133 3132 3132 3131 3131 3130 3129 3129 3129 3130 3130 3131 3132 3132 3133 3134 3134 3134 3136 3137 3138 3140 3142 3143 3145 3147 3149 3151 3152 3154 3156 3157 3159 3161 3164 3167
3124 3124 3124 3125 3125 3126 3126 3127 3127 3127 3127 3127 3127 3127 3127 3128 3128 3128 3127 3127 3127 3127 3127 3127 3127 3128 3128 3128 3128 3128 3128 3128 3129 3129 3129 3129 3129 3129 3129 3129 3128 3128 3128 3128 3128 3129 3129 3129 3130 3129 3130 3132 3134 3133 3132 3132 3131 3130 3130 3130 3129 3129 3129 3130 3130 3131 3132 3133 3133 3134 3135 3136 3137 3139 3140 3141 3144 3146 3148 3150 3152 3153 3155 3157 3158 3160 3162 3165
3123 3123 3124 3125 3125 3126 3126 3126 3127 3127 3127 3127 3127 3127 3127 3127 3127 3127 3127 3127 3127 3127 3127 3127 3127 3127 3128 3128 3128 3128 3128 3128 3129 3129 3129 3129 3129 3129 3129 3129 3128 3128 3128 3128 3128 3129 3129 3129 3130 3129 3129 3131 3132 3132 3132 3132 3131 3131 3131 3131 3130 3128 3128 3128 3129 3130 3131 3131 3132 3133 3134 3135 3136 3137 3138 3141 3143 3145 3147 3149 3151 3153 3154 3155 3157 3158 3160 3163
3122 3123 3123 3124 3125 3125 3126 3126 3126 3127 3127 3127 3127 3127 3127 3127 3127 3127 3127 3127 3127 3127 3127 3127 3127 3127 3128 3128 3128 3128 3128 3128 3129 3129 3129 3129 3129 3129 3129 3129 3128 3128 3128 3128 3128 3128 3129 3129 3129 3129 3129 3129 3130 3131 3131 3132 3132 3132 3132 3131 3129 3128 3127 3127 3128 3128 3130 3130 3131 3132 3132 3133 3135 3136 3137 3139 3142 3144 3146 3148 3150 3152 3153 3154 3156 3157 3158 3161
3122 3123 3123 3124 3124 3125 3126 3126 3126 3126 3127 3127 3127 3127 3127 3127 3127 3127 3127 3127 3127 3127 3127 3127 3127 3127 3127 3128 3128 3128 3128 3128 3129 3129 3129 3129 3129 3129 3129 3129 3128 3128 3128 3127 3128 3128 3128 3129 3129 3129 3129 3129 3129 3130 3131 3132 3133 3133 3132 3131 3129 3128 3127 3126 3127 3128 3129 3129 3130 3131 3131 3132 3133 3135 3136 3139 3141 3143 3146 3148 3150 3152 3153 3154 3155 3156 3157 3159
3122 3122 3123 3123 3124 3124 3125 3125 3126 3126 3126 3127 3127 3127 3127 3127 3127 3127 3127 3127 3127 3127 3127 3127 3127 3127 3127 3127 3128 3128 3128 3128 3128 3128 3129 3129 3129 3129 3129 3129 3129 3128 3128 3127 3127 3127 3127 3128 3128 3128 3128 3128 3129 3130 3131 3134 3135 3134 3133 3131 3129 3128 3127 3127 3127 3127 3128 3129 3130 3130 3131 3131 3133 3133 3134 3137 3140 3143 3146 3148 3150 3151 3152 3153 3153 3155 3156 3157